• In Deutschland
  • Länderverzeichnis
  • Für 7 Tage
  • Wassertemperatur
  • Satellitenkarten
  • Wetterkarte
  • Widgets
  • user-avatar
    Anmelden

    Stündliche Wetter Orbassano

    Heute, 24 September, Montag

    Zeit Temperatur Niederschläge Wind Luftdruck Luftfeuchtigkeit
    00:00 +23°C° 0 mm 2 m/S 737 mmHg 80%
    01:00 +23°C° 0 mm 2 m/S 737 mmHg 80%
    02:00 +23°C° 0 mm 2 m/S 737 mmHg 81%
    03:00 +21°C° 0 mm 2 m/S 737 mmHg 81%
    04:00 +21°C° 0 mm 2 m/S 737 mmHg 81%
    05:00 +20°C° 0 mm 2 m/S 737 mmHg 79%
    06:00 +20°C° 0 mm 2 m/S 737 mmHg 78%
    07:00 +20°C° 0 mm 2 m/S 738 mmHg 76%
    08:00 +21°C° 0 mm 2 m/S 738 mmHg 67%
    09:00 +24°C° 0 mm 3 m/S 739 mmHg 59%
    10:00 +25°C° 0 mm 3 m/S 739 mmHg 50%
    11:00 +26°C° 0 mm 3 m/S 740 mmHg 47%
    12:00 +27°C° 0 mm 3 m/S 740 mmHg 43%
    13:00 +27°C° 0 mm 4 m/S 740 mmHg 40%
    14:00 +27°C° 0 mm 4 m/S 740 mmHg 43%
    15:00 +26°C° 0 mm 4 m/S 741 mmHg 45%
    16:00 +25°C° 0 mm 4 m/S 741 mmHg 48%
    17:00 +22°C° 0 mm 4 m/S 741 mmHg 59%
    18:00 +20°C° 0 mm 3 m/S 742 mmHg 69%
    19:00 +18°C° 0 mm 3 m/S 742 mmHg 80%
    20:00 +18°C° 0.1 mm 3 m/S 743 mmHg 81%
    21:00 +17°C° 0.1 mm 3 m/S 744 mmHg 83%
    22:00 +17°C° 0.1 mm 3 m/S 745 mmHg 84%
    23:00 +16°C° 0.1 mm 2 m/S 745 mmHg 84%

    Morgen, 25 September, Dienstag

    Zeit Temperatur Niederschläge Wind Luftdruck Luftfeuchtigkeit
    00:00 +16°C° 0.1 mm 2 m/S 745 mmHg 84%
    01:00 +16°C° 0.1 mm 2 m/S 746 mmHg 84%
    02:00 +15°C° 0.1 mm 2 m/S 746 mmHg 84%
    03:00 +15°C° 0.1 mm 2 m/S 746 mmHg 84%
    04:00 +15°C° 0.1 mm 2 m/S 746 mmHg 84%
    05:00 +15°C° 0 mm 2 m/S 746 mmHg 83%
    06:00 +15°C° 0 mm 2 m/S 746 mmHg 83%
    07:00 +14°C° 0 mm 1 m/S 746 mmHg 83%
    08:00 +15°C° 0 mm 2 m/S 747 mmHg 78%
    09:00 +16°C° 0 mm 2 m/S 747 mmHg 72%
    10:00 +17°C° 0 mm 2 m/S 747 mmHg 67%
    11:00 +18°C° 0 mm 2 m/S 747 mmHg 63%
    12:00 +19°C° 0 mm 2 m/S 747 mmHg 59%
    13:00 +20°C° 0 mm 3 m/S 747 mmHg 56%
    14:00 +20°C° 0 mm 2 m/S 746 mmHg 56%
    15:00 +20°C° 0 mm 2 m/S 746 mmHg 56%
    16:00 +20°C° 0 mm 2 m/S 746 mmHg 56%
    17:00 +18°C° 0 mm 2 m/S 746 mmHg 62%
    18:00 +18°C° 0 mm 1 m/S 747 mmHg 68%
    19:00 +15°C° 0 mm 1 m/S 747 mmHg 73%
    20:00 +15°C° 0 mm 1 m/S 748 mmHg 74%
    21:00 +15°C° 0 mm 1 m/S 748 mmHg 75%
    22:00 +14°C° 0 mm 1 m/S 749 mmHg 75%
    23:00 +14°C° 0 mm 1 m/S 749 mmHg 76%

    übermorgen, 26 September, Mittwoch

    Zeit Temperatur Niederschläge Wind Luftdruck Luftfeuchtigkeit
    00:00 +14°C° 0 mm 1 m/S 750 mmHg 76%
    01:00 +14°C° 0 mm 2 m/S 750 mmHg 76%
    02:00 +13°C° 0 mm 1 m/S 750 mmHg 76%
    03:00 +13°C° 0 mm 1 m/S 750 mmHg 76%
    04:00 +13°C° 0 mm 1 m/S 750 mmHg 76%
    05:00 +13°C° 0 mm 1 m/S 750 mmHg 76%
    06:00 +13°C° 0 mm 1 m/S 750 mmHg 76%
    07:00 +12°C° 0 mm 1 m/S 750 mmHg 76%
    08:00 +14°C° 0 mm 1 m/S 750 mmHg 69%
    09:00 +16°C° 0 mm 2 m/S 750 mmHg 62%
    10:00 +18°C° 0 mm 2 m/S 750 mmHg 55%
    11:00 +19°C° 0 mm 2 m/S 750 mmHg 52%
    12:00 +20°C° 0 mm 2 m/S 750 mmHg 50%
    13:00 +21°C° 0 mm 2 m/S 750 mmHg 47%
    14:00 +21°C° 0 mm 2 m/S 749 mmHg 48%
    15:00 +23°C° 0 mm 2 m/S 749 mmHg 49%
    16:00 +23°C° 0 mm 2 m/S 749 mmHg 50%
    17:00 +20°C° 0 mm 2 m/S 749 mmHg 57%
    18:00 +19°C° 0 mm 1 m/S 749 mmHg 65%
    19:00 +15°C° 0 mm 0 m/S 749 mmHg 73%
    20:00 +14°C° 0 mm 0 m/S 749 mmHg 73%
    21:00 +14°C° 0 mm 0 m/S 749 mmHg 74%
    22:00 +14°C° 0 mm 0 m/S 750 mmHg 74%
    23:00 +14°C° 0 mm 0 m/S 749 mmHg 74%

    27 September, Donnerstag

    Zeit Temperatur Niederschläge Wind Luftdruck Luftfeuchtigkeit
    00:00 +14°C° 0 mm 1 m/S 749 mmHg 75%
    01:00 +14°C° 0 mm 1 m/S 749 mmHg 75%
    02:00 +14°C° 0 mm 1 m/S 749 mmHg 75%
    03:00 +14°C° 0 mm 1 m/S 749 mmHg 75%
    04:00 +14°C° 0 mm 1 m/S 748 mmHg 75%
    05:00 +14°C° 0 mm 1 m/S 748 mmHg 74%
    06:00 +14°C° 0 mm 1 m/S 748 mmHg 74%
    07:00 +14°C° 0 mm 1 m/S 748 mmHg 73%
    08:00 +18°C° 0 mm 1 m/S 748 mmHg 65%
    09:00 +20°C° 0 mm 1 m/S 748 mmHg 57%
    10:00 +23°C° 0 mm 1 m/S 748 mmHg 49%
    11:00 +24°C° 0 mm 1 m/S 747 mmHg 46%
    12:00 +26°C° 0 mm 2 m/S 747 mmHg 44%
    13:00 +27°C° 0 mm 2 m/S 747 mmHg 41%
    14:00 +27°C° 0 mm 2 m/S 746 mmHg 42%
    15:00 +27°C° 0 mm 2 m/S 746 mmHg 43%
    16:00 +27°C° 0 mm 2 m/S 745 mmHg 44%
    17:00 +24°C° 0 mm 1 m/S 745 mmHg 52%
    18:00 +22°C° 0 mm 1 m/S 745 mmHg 60%
    19:00 +20°C° 0 mm 1 m/S 745 mmHg 68%
    20:00 +19°C° 0 mm 1 m/S 744 mmHg 68%
    21:00 +19°C° 0 mm 1 m/S 744 mmHg 68%
    22:00 +19°C° 0 mm 1 m/S 744 mmHg 69%
    23:00 +18°C° 0 mm 1 m/S 744 mmHg 68%

    28 September, Freitag

    Zeit Temperatur Niederschläge Wind Luftdruck Luftfeuchtigkeit
    00:00 +18°C° 0 mm 1 m/S 743 mmHg 68%
    01:00 +18°C° 0 mm 1 m/S 743 mmHg 67%
    02:00 +18°C° 0 mm 1 m/S 743 mmHg 66%
    03:00 +18°C° 0 mm 1 m/S 742 mmHg 64%
    04:00 +16°C° 0 mm 1 m/S 742 mmHg 63%
    05:00 +16°C° 0 mm 1 m/S 741 mmHg 60%
    06:00 +16°C° 0 mm 1 m/S 741 mmHg 58%
    07:00 +16°C° 0 mm 1 m/S 741 mmHg 56%
    08:00 +20°C° 0 mm 1 m/S 741 mmHg 51%
    09:00 +23°C° 0 mm 1 m/S 741 mmHg 45%
    10:00 +25°C° 0 mm 1 m/S 741 mmHg 40%
    11:00 +26°C° 0 mm 1 m/S 740 mmHg 39%
    12:00 +27°C° 0 mm 2 m/S 740 mmHg 38%
    13:00 +28°C° 0 mm 2 m/S 740 mmHg 37%
    14:00 +28°C° 0 mm 2 m/S 739 mmHg 38%
    15:00 +28°C° 0 mm 2 m/S 739 mmHg 40%
    16:00 +28°C° 0 mm 2 m/S 738 mmHg 42%
    17:00 +25°C° 0 mm 1 m/S 738 mmHg 50%
    18:00 +23°C° 0 mm 1 m/S 739 mmHg 59%
    19:00 +21°C° 0 mm 1 m/S 739 mmHg 68%
    20:00 +20°C° 0 mm 1 m/S 739 mmHg 68%
    21:00 +20°C° 0 mm 1 m/S 739 mmHg 69%
    22:00 +19°C° 0 mm 1 m/S 739 mmHg 69%
    23:00 +19°C° 0 mm 1 m/S 739 mmHg 70%

    29 September, Samstag

    Zeit Temperatur Niederschläge Wind Luftdruck Luftfeuchtigkeit
    00:00 +19°C° 0 mm 1 m/S 739 mmHg 70%
    01:00 +18°C° 0 mm 1 m/S 739 mmHg 71%
    02:00 +18°C° 0 mm 1 m/S 739 mmHg 72%
    03:00 +18°C° 0 mm 1 m/S 739 mmHg 73%
    04:00 +16°C° 0 mm 1 m/S 739 mmHg 73%
    05:00 +16°C° 0 mm 1 m/S 739 mmHg 73%
    06:00 +16°C° 0 mm 1 m/S 739 mmHg 73%
    07:00 +16°C° 0 mm 1 m/S 739 mmHg 73%
    08:00 +20°C° 0 mm 1 m/S 740 mmHg 65%
    09:00 +22°C° 0 mm 1 m/S 740 mmHg 57%
    10:00 +24°C° 0 mm 1 m/S 740 mmHg 49%
    11:00 +25°C° 0 mm 2 m/S 740 mmHg 46%
    12:00 +26°C° 0 mm 2 m/S 740 mmHg 42%
    13:00 +27°C° 0 mm 2 m/S 740 mmHg 38%
    14:00 +27°C° 0 mm 2 m/S 739 mmHg 39%
    15:00 +26°C° 0 mm 2 m/S 739 mmHg 40%
    16:00 +26°C° 0 mm 2 m/S 739 mmHg 41%
    17:00 +24°C° 0 mm 2 m/S 739 mmHg 47%
    18:00 +22°C° 0 mm 1 m/S 740 mmHg 54%
    19:00 +20°C° 0 mm 1 m/S 740 mmHg 60%
    20:00 +19°C° 0 mm 1 m/S 740 mmHg 61%
    21:00 +19°C° 0 mm 1 m/S 741 mmHg 62%
    22:00 +18°C° 0 mm 1 m/S 741 mmHg 63%
    23:00 +18°C° 0 mm 1 m/S 741 mmHg 63%
    Mehr zeigen